Weather History for Abingdon, VA

Change the Weather History Date:

Sunday, January 20, 2013

  Actual Average (KTRI) Record (KTRI)
Temperature  
Mean Temperature 38 °F 35 °F  
Max Temperature 47 °F 45 °F 68 °F (1951)
Min Temperature 28 °F 25 °F -16 °F (1985)
Degree Days  
Heating Degree Days 28 30  
Month to date heating degree days 600  
Since 1 July heating degree days 2329  
Cooling Degree Days 0 0  
Month to date cooling degree days 0  
Year to date cooling degree days 0  
Moisture  
Dew Point 32 °F    
Average Humidity 78    
Maximum Humidity 99    
Minimum Humidity 57    
Precipitation  
Precipitation 0.00 in 0.11 in 1.56 in (1979)
Month to date precipitation 2.15  
Year to date precipitation 2.15  
Snow  
Snow 0.00 in 0.20 in - ()
Month to date snowfall 3.1  
Since 1 July snowfall 5.8  
Snow Depth -    
Sea Level Pressure  
Sea Level Pressure 30.11 in    
Wind  
Wind Speed 6 mph (West)    
Max Wind Speed 18 mph    
Max Gust Speed 25 mph    
Visibility 10 miles    
Events      
T = Trace of Precipitation, MM = Missing Value Source: NWS Daily Summary

Daily Weather History Graph

Daily Weather History Graph

Search for Another Location

Airport:

Trip Planner

Search our weather history database for the weather conditions in past years. The results will help you decide how hot, cold, wet, or windy it might be!

Date:

Astronomy

Jan. 20, 2013 Rise Set
Actual Time 7:37 AM EST 5:41 PM EST
Civil Twilight 7:09 AM EST 6:09 PM EST
Nautical Twilight 6:38 AM EST 6:40 PM EST
Astronomical Twilight 6:07 AM EST 7:11 PM EST
Moon 12:41 PM EST 2:09 AM EST
Length of Visible Light 10h 59m
Length of Day
10h 03m
Waxing Gibbous, 66% of the Moon is Illuminated
Jan 20
Waxing Gibbous
Jan 26
Full
Feb 3
Last Quarter
Feb 10
New
Feb 17
First Quarter

Hourly Weather History & Observations

Time (EST) Temp. Windchill Dew Point Humidity Pressure Visibility Wind Dir Wind Speed Gust Speed Precip Events Conditions
12:15 AM 28.6 °F - 27.9 °F 97% 30.13 in 10.0 mi Calm Calm - N/A   Clear
12:35 AM 32.4 °F 29.1 °F 32.0 °F 99% 30.13 in 10.0 mi West 3.5 mph - N/A   Clear
1:15 AM 29.7 °F 26.1 °F 28.8 °F 96% 30.13 in 10.0 mi WSW 3.5 mph - N/A   Clear
1:35 AM 32.4 °F 27.9 °F 31.3 °F 96% 30.13 in 10.0 mi West 4.6 mph - N/A   Clear
1:55 AM 32.5 °F 29.3 °F 30.6 °F 92% 30.13 in 10.0 mi West 3.5 mph - N/A   Clear
2:15 AM 32.0 °F - 30.7 °F 95% 30.13 in 10.0 mi Calm Calm - N/A   Clear
2:35 AM 31.5 °F 28.1 °F 28.9 °F 90% 30.13 in 10.0 mi WNW 3.5 mph - N/A   Clear
2:55 AM 31.8 °F - 30.2 °F 94% 30.13 in 10.0 mi Calm Calm - N/A   Clear
3:15 AM 32.7 °F 28.3 °F 30.6 °F 92% 30.12 in 10.0 mi West 4.6 mph - N/A   Clear
3:35 AM 29.3 °F 24.3 °F 28.4 °F 96% 30.12 in 10.0 mi West 4.6 mph - N/A   Clear
4:15 AM 32.0 °F 26.4 °F 30.2 °F 93% 30.11 in 10.0 mi West 5.8 mph - N/A   Clear
4:35 AM 32.4 °F 26.9 °F 30.0 °F 91% 30.11 in 10.0 mi West 5.8 mph - N/A   Clear
5:15 AM 33.3 °F 27.9 °F 29.8 °F 87% 30.11 in 10.0 mi West 5.8 mph - N/A   Clear
5:35 AM 34.0 °F 29.8 °F 30.0 °F 85% 30.11 in 10.0 mi WNW 4.6 mph - N/A   Clear
5:55 AM 33.4 °F 27.3 °F 29.7 °F 86% 30.11 in 10.0 mi West 6.9 mph - N/A   Clear
6:15 AM 33.8 °F 26.4 °F 29.7 °F 85% 30.11 in 10.0 mi West 9.2 mph - N/A   Clear
6:35 AM 34.0 °F 27.2 °F 30.0 °F 85% 30.11 in 10.0 mi West 8.1 mph - N/A   Clear
7:15 AM 33.6 °F 27.5 °F 29.8 °F 86% 30.11 in 10.0 mi West 6.9 mph - N/A   Clear
7:35 AM 33.8 °F 27.7 °F 29.7 °F 85% 30.11 in 10.0 mi West 6.9 mph - N/A   Clear
7:55 AM 33.3 °F 27.1 °F 29.7 °F 87% 30.11 in 10.0 mi West 6.9 mph - N/A   Clear
8:15 AM 34.2 °F 29.0 °F 29.7 °F 84% 30.12 in 10.0 mi West 5.8 mph - N/A   Clear
8:35 AM 34.7 °F 28.8 °F 29.8 °F 82% 30.12 in 10.0 mi West 6.9 mph - N/A   Clear
8:55 AM 35.2 °F 29.5 °F 30.2 °F 82% 30.12 in 10.0 mi West 6.9 mph - N/A   Clear
9:15 AM 36.5 °F 29.7 °F 30.7 °F 80% 30.13 in 10.0 mi West 9.2 mph - N/A   Clear
9:35 AM 37.6 °F 31.6 °F 31.1 °F 77% 30.14 in 10.0 mi West 8.1 mph - N/A   Clear
9:55 AM 38.5 °F 32.1 °F 31.6 °F 76% 30.14 in 10.0 mi West 9.2 mph - N/A   Clear
10:15 AM 39.6 °F 34.0 °F 32.0 °F 74% 30.14 in 10.0 mi West 8.1 mph - N/A   Clear
10:35 AM 40.6 °F 34.8 °F 32.0 °F 71% 30.15 in 10.0 mi West 9.2 mph - N/A   Clear
10:55 AM 41.7 °F 35.6 °F 32.5 °F 70% 30.15 in 10.0 mi West 10.4 mph - N/A   Clear
11:15 AM 43.0 °F 38.8 °F 33.1 °F 68% 30.15 in 10.0 mi West 6.9 mph - N/A   Clear
11:35 AM 43.7 °F 36.9 °F 33.6 °F 68% 30.13 in 10.0 mi West 13.8 mph - N/A   Clear
11:55 AM 43.7 °F 36.9 °F 33.8 °F 68% 30.12 in 10.0 mi West 13.8 mph 19.6 mph N/A   Clear
12:15 PM 44.2 °F 36.4 °F 34.0 °F 67% 30.12 in 10.0 mi West 18.4 mph 21.9 mph N/A   Clear
12:35 PM 44.4 °F 37.9 °F 34.2 °F 67% 30.11 in 10.0 mi West 13.8 mph 20.7 mph N/A   Clear
12:55 PM 44.8 °F 37.7 °F 34.2 °F 66% 30.10 in 10.0 mi West 16.1 mph 25.3 mph N/A   Clear
1:15 PM 45.0 °F 38.5 °F 34.2 °F 66% 30.09 in 10.0 mi West 13.8 mph 19.6 mph N/A   Clear
1:35 PM 45.7 °F 38.8 °F 33.3 °F 62% 30.09 in 10.0 mi WNW 16.1 mph 20.7 mph N/A   Clear
1:55 PM 46.0 °F 39.9 °F 33.4 °F 61% 30.08 in 10.0 mi West 13.8 mph 19.6 mph N/A   Clear
2:15 PM 46.4 °F 40.4 °F 33.3 °F 60% 30.08 in 10.0 mi West 13.8 mph - N/A   Clear
2:35 PM 46.9 °F - 33.6 °F 60% 30.07 in 10.0 mi WNW 12.7 mph 17.3 mph N/A   Clear
2:55 PM 47.5 °F - 33.6 °F 59% 30.07 in 10.0 mi West 10.4 mph 16.1 mph N/A   Clear
3:15 PM 47.5 °F - 33.1 °F 57% 30.07 in 10.0 mi WNW 11.5 mph 18.4 mph N/A   Clear
3:35 PM 47.7 °F - 33.4 °F 58% 30.08 in 10.0 mi WNW 11.5 mph 18.4 mph N/A   Clear
3:55 PM 47.8 °F - 33.3 °F 57% 30.08 in 10.0 mi WNW 10.4 mph 19.6 mph N/A   Clear
4:15 PM 47.8 °F - 33.4 °F 57% 30.08 in 10.0 mi West 12.7 mph 17.3 mph N/A   Clear
4:35 PM 47.7 °F - 33.8 °F 59% 30.08 in 10.0 mi WNW 9.2 mph - N/A   Clear
4:55 PM 47.7 °F - 34.0 °F 59% 30.08 in 10.0 mi WNW 6.9 mph - N/A   Clear
5:15 PM 47.1 °F - 33.8 °F 60% 30.08 in 10.0 mi West 6.9 mph - N/A   Clear
5:35 PM 46.4 °F 42.9 °F 33.3 °F 60% 30.08 in 10.0 mi WNW 6.9 mph - N/A   Clear
5:55 PM 45.1 °F 42.8 °F 33.3 °F 63% 30.09 in 10.0 mi NW 4.6 mph - N/A   Clear
6:15 PM 45.0 °F - 33.1 °F 63% 30.10 in 10.0 mi Calm Calm - N/A   Clear
6:35 PM 43.0 °F 41.3 °F 33.3 °F 69% 30.10 in 10.0 mi NW 3.5 mph - N/A   Clear
6:55 PM 41.9 °F 40.0 °F 33.1 °F 71% 30.10 in 10.0 mi West 3.5 mph - N/A   Clear
7:15 PM 41.0 °F - 33.1 °F 73% 30.10 in 10.0 mi Calm Calm - N/A   Clear
7:35 PM 38.5 °F 36.1 °F 32.9 °F 80% 30.10 in 10.0 mi NNW 3.5 mph - N/A   Clear
8:15 PM 38.3 °F - 33.3 °F 82% 30.10 in 10.0 mi Calm Calm - N/A   Clear
8:35 PM 36.1 °F - 33.1 °F 89% 30.10 in 10.0 mi Calm Calm - N/A   Clear
8:55 PM 36.1 °F - 32.5 °F 87% 30.10 in 10.0 mi Calm Calm - N/A   Clear
9:15 PM 36.1 °F - 32.4 °F 86% 30.10 in 10.0 mi Calm Calm - N/A   Clear
9:35 PM 34.9 °F - 32.2 °F 90% 30.10 in 10.0 mi Calm Calm - N/A   Clear
10:15 PM 33.8 °F - 32.0 °F 93% 30.10 in 10.0 mi Calm Calm - N/A   Clear
10:35 PM 33.8 °F - 32.0 °F 93% 30.09 in 10.0 mi Calm Calm - N/A   Clear
10:55 PM 32.2 °F - 31.8 °F 99% 30.09 in 10.0 mi Calm Calm - N/A   Clear
11:35 PM 33.4 °F - 32.0 °F 94% 30.09 in 10.0 mi Calm Calm - N/A   Clear